Location: ????????
(56.0167°N, 38.0333°E)
Time: 13:55:56
(UTC+00:00)

Cosmos 1666 Rocket - Pass Details

Date: 19 May 2025
Orbit: 599 x 625 km, 82.5° (Epoch: 19 June)

Event Time Altitude Azimuth Distance (km) Brightness Sun altitude
Rises 22:16:05 0° 342° (NNW) 2,881 8.1 -13.2°
Reaches altitude 10° 22:18:26 10° 334° (NNW) 1,976 6.9 -13.2°
Maximum altitude 22:22:25 36° 269° (W) 982 4.4 -13.0°
Enters shadow 22:25:01 19° 213° (SSW) 1,489 4.9 -12.9°
